FW4624 Weather Reports


time (UTC)temp
C
wind
direction
speed
KPH
gust
KPH
rain 1hr
cm
rain 24hr
cm
rain mn
cm
humidity
%
barometer
mb
20260903123548 22 246 8.0 16.1 0.00 0.00 0.00 61 1019.4
20260903123046 22 221 8.0 12.9 0.00 0.00 0.00 62 1019.4
20260903122545 22 199 6.4 12.9 0.00 0.00 0.00 63 1019.4
20260903122046 22 197 4.8 12.9 0.00 0.00 0.00 64 1019.6
20260903121543 22 211 4.8 11.3 0.00 0.00 0.00 63 1019.7
20260903121042 21 209 6.4 14.5 0.00 0.00 0.00 62 1019.7
20260903120541 21 198 6.4 14.5 0.00 0.00 0.00 62 1019.8
20260903120042 21 202 6.4 16.1 0.00 0.00 0.00 62 1019.8
20260903115539 21 213 9.7 17.7 0.00 0.00 0.00 61 1019.9
20260903115039 21 221 6.4 16.1 0.00 0.00 0.00 62 1020.0
20260903114539 21 207 8.0 20.9 0.00 0.00 0.00 62 1020.0
20260903114040 21 201 8.0 20.9 0.00 0.00 0.00 62 1020.0
20260903113536 21 203 8.0 24.1 0.00 0.00 0.00 62 1020.0
20260903113036 21 192 11.3 19.3 0.00 0.00 0.00 62 1020.1
20260903112538 21 188 9.7 22.5 0.00 0.00 0.00 63 1020.0
20260903112034 20 193 9.7 22.5 0.00 0.00 0.00 64 1020.0
20260903111533 20 186 11.3 22.5 0.00 0.00 0.00 63 1020.1
20260903111035 20 210 11.3 22.5 0.00 0.00 0.00 63 1020.1
20260903110533 20 196 12.9 22.5 0.00 0.00 0.00 64 1019.9
20260903110033 20 208 11.3 25.7 0.00 0.00 0.00 64 1020.1
20260903105532 20 211 12.9 25.7 0.00 0.00 0.00 64 1020.2
20260903105033 20 215 12.9 24.1 0.00 0.00 0.00 65 1020.0
20260903104632 20 200 12.9 20.9 0.00 0.00 0.00 65 1020.0
20260903104030 20 210 9.7 24.1 0.00 0.00 0.00 66 1020.1
20260903103533 20 205 16.1 25.7 0.00 0.00 0.00 65 1020.3
20260903103030 20 184 8.0 22.5 0.00 0.00 0.00 67 1020.3
20260903102529 20 195 11.3 22.5 0.00 0.00 0.00 64 1020.3
20260903102029 20 197 9.7 19.3 0.00 0.00 0.00 66 1020.4
20260903101532 20 219 8.0 17.7 0.00 0.00 0.00 65 1020.6
20260903101029 20 175 9.7 20.9 0.00 0.00 0.00 64 1020.5
20260903100529 20 190 12.9 25.7 0.00 0.00 0.00 64 1020.5
20260903100028 20 185 12.9 25.7 0.00 0.00 0.00 65 1020.6
20260903095528 20 207 9.7 24.1 0.00 0.00 0.00 65 1020.6
20260903095026 20 180 12.9 29.0 0.00 0.00 0.00 65 1020.8
20260903094526 20 223 14.5 29.0 0.00 0.00 0.00 63 1021.0
20260903094026 20 197 14.5 29.0 0.00 0.00 0.00 63 1020.9
20260903093526 20 237 11.3 27.4 0.00 0.00 0.00 62 1021.0
20260903093033 20 183 12.9 22.5 0.00 0.00 0.00 63 1020.9
20260903092529 20 215 14.5 25.7 0.00 0.00 0.00 63 1020.9
20260903092025 20 237 17.7 25.7 0.00 0.00 0.00 63 1020.9
20260903091524 20 202 14.5 25.7 0.00 0.00 0.00 64 1021.0
20260903091024 20 231 9.7 16.1 0.00 0.00 0.00 66 1020.9
20260903090523 20 219 11.3 20.9 0.00 0.00 0.00 65 1020.9
20260903090022 20 192 9.7 22.5 0.00 0.00 0.00 67 1020.9
20260903085521 19 192 11.3 24.1 0.00 0.00 0.00 66 1020.9
20260903085019 19 207 12.9 24.1 0.00 0.00 0.00 67 1020.9
20260903084519 18 194 11.3 19.3 0.00 0.00 0.00 68 1021.1
20260903084017 18 233 11.3 19.3 0.00 0.00 0.00 68 1021.1
20260903083517 18 205 11.3 19.3 0.00 0.00 0.00 69 1021.3
20260903083015 18 225 12.9 20.9 0.00 0.00 0.00 70 1021.3
20260903082514 18 182 9.7 19.3 0.00 0.00 0.00 71 1021.2
20260903082015 18 175 9.7 17.7 0.00 0.00 0.00 71 1021.2
20260903081534 18 198 8.0 17.7 0.00 0.00 0.00 72 1021.3
20260903081012 17 186 9.7 17.7 0.00 0.00 0.00 72 1021.1
20260903080511 17 181 8.0 17.7 0.00 0.00 0.00 73 1021.0
20260903080011 17 196 9.7 16.1 0.00 0.00 0.00 73 1021.1
20260903075513 17 190 8.0 16.1 0.00 0.00 0.00 74 1021.1
20260903075007 17 178 9.7 16.1 0.00 0.00 0.00 75 1021.0
20260903074508 17 188 8.0 17.7 0.00 0.00 0.00 76 1021.1
20260903074006 16 199 9.7 16.1 0.00 0.00 0.00 77 1021.1
20260903073505 16 186 9.7 16.1 0.00 0.00 0.00 78 1021.2
20260903073006 16 183 8.0 16.1 0.00 0.00 0.00 79 1021.2
20260903072503 16 180 9.7 16.1 0.00 0.00 0.00 80 1021.1
20260903072002 16 180 8.0 14.5 0.00 0.00 0.00 81 1021.2
20260903071502 16 187 11.3 14.5 0.00 0.00 0.00 82 1021.2
20260903071104 15 174 8.0 16.1 0.00 0.00 0.00 84 1021.0
20260903070600 15 178 4.8 14.5 0.00 0.00 0.00 85 1021.2
20260903070058 15 181 9.7 14.5 0.00 0.00 0.00 86 1021.3
20260903065556 15 180 4.8 9.7 0.00 0.00 0.00 87 1021.3
20260903065057 14 180 4.8 9.7 0.00 0.00 0.00 88 1021.1
20260903064556 14 186 3.2 6.4 0.00 0.00 0.00 89 1021.0
20260903064055 13 215 1.6 4.8 0.00 0.00 0.00 89 1021.1
20260903063554 13 219 1.6 6.4 0.00 0.00 0.00 88 1021.1
20260903063055 13 219 3.2 6.4 0.00 0.00 0.00 89 1021.0
20260903062554 13 219 0.0 0.0 0.00 0.00 0.00 89 1021.2
20260903062055 13 219 0.0 0.0 0.00 0.00 0.00 90 1021.3
20260903061601 13 219 0.0 0.0 0.00 0.00 0.00 90 1021.3
20260903061053 13 219 0.0 0.0 0.00 0.00 0.00 90 1021.5
20260903060554 13 219 0.0 0.0 0.00 0.00 0.00 90 1021.4
20260903060055 12 219 0.0 0.0 0.00 0.00 0.00 90 1021.6
20260903055554 12 219 0.0 3.2 0.00 0.00 0.00 90 1021.6
20260903055054 12 219 0.0 3.2 0.00 0.00 0.00 91 1021.5
20260903054553 12 219 1.6 3.2 0.00 0.00 0.00 91 1021.4
20260903054052 12 219 0.0 3.2 0.00 0.00 0.00 91 1021.3
20260903053553 12 219 0.0 1.6 0.00 0.00 0.00 92 1021.5
20260903053051 12 219 0.0 4.8 0.00 0.00 0.00 91 1021.2
20260903052552 12 219 1.6 4.8 0.00 0.00 0.00 92 1021.3
20260903052052 12 219 0.0 0.0 0.00 0.00 0.00 92 1021.2
20260903051552 12 219 0.0 0.0 0.00 0.00 0.00 92 1021.3
20260903051055 12 219 0.0 0.0 0.00 0.00 0.00 92 1021.3
20260903050551 11 219 0.0 0.0 0.00 0.00 0.00 92 1021.3
20260903050051 11 219 0.0 0.0 0.00 0.00 0.00 92 1021.3
20260903045551 11 219 0.0 0.0 0.00 0.00 0.00 92 1021.3
20260903045050 11 219 0.0 0.0 0.00 0.00 0.00 92 1021.4
20260903044553 11 219 0.0 0.0 0.00 0.00 0.00 92 1021.6
20260903044050 11 219 0.0 0.0 0.00 0.00 0.00 92 1021.6
20260903043550 11 219 0.0 0.0 0.00 0.00 0.00 93 1021.4
20260903043050 11 219 0.0 0.0 0.00 0.00 0.00 92 1021.4
20260903042550 10 219 0.0 0.0 0.00 0.00 0.00 92 1021.5
20260903042049 10 219 0.0 0.0 0.00 0.00 0.00 92 1021.3
20260903041549 10 219 0.0 0.0 0.00 0.00 0.00 92 1021.2
20260903041049 10 219 0.0 0.0 0.00 0.00 0.00 92 1021.3
20260903040549 10 219 0.0 0.0 0.00 0.00 0.00 92 1021.4
20260903040051 10 219 0.0 0.0 0.00 0.00 0.00 92 1021.4
20260903035548 10 219 0.0 0.0 0.00 0.03 0.00 92 1021.5
20260903035048 10 219 0.0 0.0 0.00 0.03 0.00 92 1021.3
20260903034548 10 219 0.0 0.0 0.00 0.03 0.00 92 1021.3
20260903034048 10 219 0.0 0.0 0.00 0.03 0.00 92 1021.3
20260903033549 10 219 0.0 0.0 0.00 0.03 0.00 92 1021.2
20260903033047 10 219 0.0 0.0 0.00 0.03 0.00 92 1021.3
20260903032547 10 219 0.0 0.0 0.00 0.03 0.00 92 1021.3
20260903032045 10 219 0.0 0.0 0.00 0.03 0.00 92 1021.4
20260903031551 10 219 0.0 0.0 0.00 0.03 0.00 91 1021.4
20260903031046 10 219 0.0 0.0 0.00 0.03 0.00 91 1021.5
20260903030545 10 219 0.0 0.0 0.00 0.03 0.00 91 1021.5
20260903030044 10 219 0.0 0.0 0.00 0.03 0.00 91 1021.7
20260903025543 10 219 0.0 0.0 0.00 0.03 0.00 91 1021.8
20260903025042 10 219 0.0 0.0 0.00 0.03 0.00 91 1021.8
20260903024542 11 219 0.0 0.0 0.00 0.03 0.00 91 1021.9
20260903024042 11 219 0.0 0.0 0.00 0.03 0.00 91 1021.7
20260903023544 11 219 0.0 0.0 0.00 0.03 0.00 91 1021.8
20260903023057 11 219 0.0 0.0 0.00 0.03 0.00 91 1021.8
20260903022542 10 219 0.0 0.0 0.00 0.03 0.00 91 1021.7
20260903022041 10 219 0.0 0.0 0.00 0.03 0.00 91 1021.7
20260903021544 11 219 0.0 0.0 0.00 0.03 0.00 91 1021.7
20260903021038 11 219 0.0 0.0 0.00 0.03 0.00 91 1021.7
20260903020539 11 219 0.0 0.0 0.00 0.03 0.00 91 1021.8
20260903020038 11 219 0.0 0.0 0.00 0.03 0.00 91 1021.8
20260903015543 11 219 0.0 0.0 0.00 0.03 0.00 91 1021.7
20260903015038 11 219 0.0 0.0 0.00 0.03 0.00 91 1021.7
20260903014537 11 219 0.0 0.0 0.00 0.03 0.00 91 1021.7
20260903014037 11 219 0.0 0.0 0.00 0.03 0.00 90 1021.7
20260903013537 11 219 0.0 0.0 0.00 0.03 0.00 90 1021.6
20260903013039 11 219 0.0 0.0 0.00 0.03 0.00 90 1021.7
20260903012539 11 219 0.0 0.0 0.00 0.03 0.00 90 1021.6
20260903012036 11 219 0.0 0.0 0.00 0.03 0.00 89 1021.6
20260903011536 11 219 0.0 0.0 0.00 0.03 0.00 89 1021.8
20260903011034 11 219 0.0 0.0 0.00 0.03 0.00 89 1021.8
20260903010536 11 219 0.0 0.0 0.00 0.03 0.00 88 1021.8
20260903010033 11 219 0.0 0.0 0.00 0.03 0.00 89 1021.8
20260903005533 11 219 0.0 0.0 0.00 0.03 0.00 88 1021.9
20260903005032 11 219 0.0 0.0 0.00 0.03 0.00 88 1021.8
20260903004534 11 219 0.0 0.0 0.00 0.03 0.00 88 1021.7
20260903004031 11 219 0.0 0.0 0.00 0.03 0.00 87 1021.8
20260903003530 12 219 0.0 0.0 0.00 0.03 0.00 87 1021.7
20260903003032 12 219 0.0 0.0 0.00 0.03 0.00 86 1021.8
20260903002530 12 219 0.0 0.0 0.00 0.03 0.00 86 1022.0
20260903002028 12 219 0.0 0.0 0.00 0.03 0.00 86 1021.9
20260903001531 12 219 0.0 0.0 0.00 0.03 0.00 85 1021.8
20260903001026 12 219 0.0 0.0 0.00 0.03 0.00 85 1021.9
20260903000531 13 219 0.0 0.0 0.00 0.03 0.00 84 1021.8
20260903000026 13 219 0.0 0.0 0.00 0.03 0.00 85 1021.9
20260902235526 13 219 0.0 0.0 0.00 0.03 0.00 84 1021.9
20260902235026 13 219 0.0 0.0 0.00 0.03 0.00 84 1021.9
20260902234526 13 219 0.0 0.0 0.00 0.03 0.00 85 1022.0
20260902234025 12 219 0.0 0.0 0.00 0.03 0.00 86 1022.0
20260902233525 12 219 0.0 0.0 0.00 0.03 0.00 86 1022.1
20260902233025 12 219 0.0 0.0 0.00 0.03 0.00 86 1022.1
20260902232525 12 219 0.0 0.0 0.00 0.03 0.00 85 1022.1
20260902232024 12 219 0.0 0.0 0.00 0.03 0.00 85 1022.0
20260902231535 12 219 0.0 1.6 0.00 0.03 0.00 85 1021.9
20260902231024 12 219 0.0 1.6 0.00 0.03 0.00 84 1022.0
20260902230521 13 219 0.0 0.0 0.00 0.03 0.00 82 1021.9
20260902230020 13 219 0.0 1.6 0.00 0.03 0.00 82 1021.9
20260902225525 13 219 0.0 1.6 0.00 0.03 0.00 83 1021.9
20260902225020 13 219 0.0 0.0 0.00 0.03 0.00 82 1021.8
20260902224519 13 219 0.0 0.0 0.00 0.03 0.00 82 1021.9
20260902224022 13 219 0.0 0.0 0.00 0.03 0.00 82 1022.0
20260902223519 13 219 0.0 0.0 0.00 0.03 0.00 81 1021.8
20260902223023 13 219 0.0 0.0 0.00 0.03 0.00 80 1021.9
20260902222516 14 219 0.0 1.6 0.00 0.03 0.00 79 1022.0
20260902222015 14 219 0.0 1.6 0.00 0.03 0.00 79 1021.9
20260902221517 14 219 0.0 4.8 0.00 0.03 0.00 78 1021.8
20260902221013 15 219 1.6 4.8 0.00 0.03 0.00 77 1021.8
20260902220512 15 219 0.0 1.6 0.00 0.03 0.00 77 1021.8
20260902220012 15 219 0.0 3.2 0.00 0.03 0.00 76 1021.8
20260902215510 15 219 0.0 3.2 0.00 0.03 0.03 76 1021.7
20260902215010 15 219 1.6 3.2 0.00 0.03 0.03 75 1021.7
20260902214515 15 219 0.0 0.0 0.00 0.03 0.03 74 1021.7
20260902214011 16 219 0.0 0.0 0.00 0.03 0.03 73 1021.7
20260902213510 16 219 0.0 0.0 0.00 0.03 0.03 73 1021.7
20260902213010 15 219 0.0 0.0 0.00 0.03 0.03 74 1021.7
20260902212513 16 219 0.0 0.0 0.00 0.03 0.03 72 1021.7
20260902212010 16 219 0.0 0.0 0.00 0.03 0.03 72 1021.6
20260902211510 16 219 0.0 1.6 0.00 0.03 0.03 72 1021.7
20260902211009 16 219 0.0 4.8 0.00 0.03 0.03 73 1021.5
20260902210510 16 219 1.6 6.4 0.00 0.03 0.03 73 1021.6
20260902210009 16 219 1.6 6.4 0.00 0.03 0.03 74 1021.6
20260902205510 16 339 0.0 0.0 0.00 0.03 0.03 74 1021.6
20260902205009 16 339 0.0 0.0 0.00 0.03 0.03 71 1021.7
20260902204509 17 339 0.0 0.0 0.00 0.03 0.03 71 1021.6
20260902204008 16 339 0.0 0.0 0.00 0.03 0.03 71 1021.6
20260902203510 16 339 0.0 0.0 0.00 0.03 0.03 71 1021.6
20260902203009 17 339 0.0 0.0 0.00 0.03 0.03 70 1021.7
20260902202509 17 339 0.0 0.0 0.00 0.03 0.03 68 1021.7
20260902202009 17 339 0.0 0.0 0.00 0.03 0.03 68 1021.6
20260902201514 17 339 0.0 0.0 0.00 0.03 0.03 69 1021.7
20260902201007 17 339 0.0 0.0 0.00 0.03 0.03 66 1021.7
20260902200509 17 339 0.0 0.0 0.00 0.03 0.03 62 1021.6
20260902200008 18 339 0.0 0.0 0.00 0.03 0.03 63 1021.7
20260902195507 17 339 0.0 0.0 0.00 0.03 0.03 62 1021.7
20260902195009 17 339 0.0 0.0 0.00 0.03 0.03 63 1021.7
20260902194509 17 339 0.0 0.0 0.00 0.03 0.03 65 1021.5
20260902194007 17 339 0.0 0.0 0.00 0.03 0.03 66 1021.6
20260902193507 17 339 0.0 0.0 0.00 0.03 0.03 65 1021.6
20260902193007 17 339 0.0 0.0 0.00 0.03 0.03 65 1021.6
20260902192507 17 339 0.0 0.0 0.00 0.03 0.03 67 1021.5
20260902192007 17 339 0.0 0.0 0.00 0.03 0.03 63 1021.5
20260902191512 17 339 0.0 0.0 0.00 0.03 0.03 64 1021.4
20260902191007 17 339 0.0 0.0 0.00 0.03 0.03 65 1021.4
20260902190507 17 339 0.0 0.0 0.00 0.03 0.03 64 1021.3
20260902190006 18 339 0.0 0.0 0.00 0.03 0.03 61 1021.2
20260902185507 18 339 0.0 0.0 0.00 0.03 0.03 61 1021.2
20260902185005 18 339 0.0 0.0 0.00 0.03 0.03 60 1021.2
20260902184505 18 339 0.0 0.0 0.00 0.03 0.03 59 1021.2
20260902184005 18 339 0.0 0.0 0.00 0.03 0.03 58 1021.3
20260902183505 18 339 0.0 0.0 0.00 0.03 0.03 58 1021.1
20260902183005 18 339 0.0 0.0 0.00 0.03 0.03 55 1021.1
20260902182504 19 339 0.0 4.8 0.00 0.03 0.03 55 1020.9
20260902182006 19 339 1.6 4.8 0.00 0.03 0.03 55 1021.0
20260902181505 19 339 0.0 3.2 0.00 0.03 0.03 55 1020.8
20260902181003 19 339 1.6 4.8 0.00 0.03 0.03 54 1020.8
20260902180503 19 339 1.6 8.0 0.00 0.03 0.03 53 1020.6
20260902180006 20 339 1.6 9.7 0.00 0.03 0.03 53 1020.6
20260902175503 20 339 3.2 9.7 0.00 0.03 0.03 52 1020.6
20260902175006 20 339 1.6 12.9 0.00 0.03 0.03 52 1020.5
20260902174505 20 338 4.8 12.9 0.00 0.03 0.03 51 1020.5
20260902174003 20 341 3.2 8.0 0.00 0.03 0.03 52 1020.5
20260902173504 20 342 1.6 9.7 0.00 0.03 0.03 51 1020.4
20260902173003 21 340 3.2 9.7 0.00 0.03 0.03 50 1020.4
20260902172503 21 342 3.2 8.0 0.00 0.03 0.03 51 1020.4
20260902172004 21 342 0.0 9.7 0.00 0.03 0.03 51 1020.4
20260902171503 21 342 1.6 9.7 0.00 0.03 0.03 51 1020.5
20260902171002 21 341 3.2 14.5 0.00 0.03 0.03 50 1020.5
20260902170504 21 340 1.6 14.5 0.00 0.03 0.03 50 1020.5
20260902170002 21 336 3.2 9.7 0.00 0.03 0.03 50 1020.5
20260902165502 21 334 4.8 12.9 0.00 0.03 0.03 50 1020.4
20260902165002 21 333 8.0 14.5 0.00 0.03 0.03 50 1020.5
20260902164503 21 339 4.8 16.1 0.00 0.03 0.03 50 1020.5
20260902164001 21 330 6.4 17.7 0.00 0.03 0.03 51 1020.5
20260902163502 21 329 8.0 17.7 0.00 0.03 0.03 51 1020.5
20260902163002 21 346 4.8 14.5 0.00 0.03 0.03 51 1020.5
20260902162501 21 348 4.8 14.5 0.00 0.03 0.03 51 1020.5
20260902162003 21 329 3.2 14.5 0.00 0.03 0.03 50 1020.5
20260902161503 21 340 6.4 14.5 0.00 0.03 0.03 50 1020.5
20260902161059 22 339 3.2 19.3 0.00 0.03 0.03 50 1020.5
20260902160600 22 348 8.0 19.3 0.00 0.03 0.03 48 1020.4
20260902160106 22 324 6.4 19.3 0.00 0.03 0.03 49 1020.6
20260902155604 22 351 11.3 19.3 0.00 0.03 0.03 48 1020.5
20260902155100 22 337 4.8 19.3 0.00 0.03 0.03 48 1020.5
20260902154609 22 333 4.8 20.9 0.00 0.03 0.03 49 1020.5
20260902154059 22 338 3.2 20.9 0.00 0.03 0.03 48 1020.5
20260902153559 22 344 6.4 14.5 0.00 0.03 0.03 47 1020.4
20260902153059 22 337 6.4 14.5 0.00 0.03 0.03 46 1020.4
20260902152559 22 337 1.6 12.9 0.00 0.03 0.03 50 1020.4
20260902152102 22 339 6.4 12.9 0.00 0.03 0.03 46 1020.4
20260902151559 22 344 3.2 16.1 0.00 0.03 0.03 48 1020.4
20260902151058 22 342 3.2 17.7 0.00 0.03 0.03 48 1020.5
20260902150558 22 341 4.8 14.5 0.00 0.03 0.03 49 1020.6
20260902150058 22 341 4.8 14.5 0.00 0.03 0.03 50 1020.6
20260902145558 22 334 4.8 16.1 0.00 0.03 0.03 49 1020.6
20260902145057 22 336 8.0 16.1 0.00 0.03 0.03 49 1020.6
20260902144559 22 336 8.0 16.1 0.00 0.03 0.03 47 1020.6
20260902144057 23 322 4.8 16.1 0.00 0.03 0.03 48 1020.6
20260902143559 23 313 4.8 14.5 0.00 0.03 0.03 48 1020.6
20260902143058 23 339 3.2 17.7 0.00 0.03 0.03 47 1020.6
20260902142557 23 325 4.8 17.7 0.00 0.03 0.03 47 1020.5
20260902142057 23 344 3.2 17.7 0.00 0.03 0.03 49 1020.5
20260902141558 23 337 4.8 17.7 0.00 0.03 0.03 47 1020.5
20260902141056 23 347 8.0 20.9 0.00 0.03 0.03 46 1020.5
20260902140558 23 342 8.0 20.9 0.00 0.03 0.03 47 1020.6
20260902140055 23 341 8.0 16.1 0.00 0.03 0.03 48 1020.5
20260902135556 23 336 3.2 12.9 0.00 0.03 0.03 48 1020.5
20260902135056 23 335 3.2 16.1 0.00 0.03 0.03 48 1020.5
20260902134557 23 347 4.8 16.1 0.00 0.03 0.03 47 1020.6
20260902134055 24 266 3.2 14.5 0.00 0.03 0.03 45 1020.4
20260902133555 24 252 6.4 16.1 0.00 0.03 0.03 46 1020.6
20260902133055 25 262 1.6 16.1 0.00 0.03 0.03 45 1020.5
20260902132556 25 335 3.2 16.1 0.00 0.03 0.03 47 1020.6
20260902132056 25 343 1.6 14.5 0.00 0.03 0.03 49 1020.6
20260902131556 25 335 3.2 14.5 0.00 0.03 0.03 47 1020.6
20260902131057 24 339 4.8 14.5 0.00 0.03 0.03 47 1020.6
20260902130554 24 338 3.2 14.5 0.00 0.03 0.03 48 1020.6
20260902130056 25 256 4.8 11.3 0.00 0.03 0.03 47 1020.5
20260902125554 25 347 1.6 16.1 0.00 0.03 0.03 48 1020.5
20260902125054 24 338 1.6 14.5 0.00 0.03 0.03 50 1020.6
20260902124554 24 346 4.8 14.5 0.00 0.03 0.03 49 1020.5
20260902124054 25 304 3.2 19.3 0.00 0.03 0.03 51 1020.5